Preview of NWS' New Version of Forecast
This preview is not operational and should not be used for support decisions.

Regional Weather Roundup (RWR)

Issued by National Weather Service (NWS)

                            
000
ASUS42 KTBW 220016
RWRFL 
FLORIDA REGIONAL WEATHER ROUNDUP
NATIONAL WEATHER SERVICE TAMPA BAY RUSKIN FL
800 PM EDT TUE MAY 21 2019

NOTE: "FAIR" INDICATES FEW OR NO CLOUDS BELOW 12,000 FEET WITH NO
SIGNIFICANT WEATHER AND/OR OBSTRUCTIONS TO VISIBILITY.

FLZ001>010-012>015-112-114-115-220100-
PANHANDLE FLORIDA
  
CITY           SKY/WX    TMP DP  RH WIND       PRES   REMARKS
PENSACOLA      FAIR      80  71  74 S10       29.92S                  
PENSACOLA NAS  FAIR      80  70  71 S7        29.92S                  
MILTON NAS     FAIR      79  69  71 S10       29.93S                  
CRESTVIEW      FAIR      82  60  47 S5        29.94R                  
DUKE FIELD     CLEAR     82  62  50 S8        29.92S                  
PANAMA CITY    FAIR      81  64  56 S7        29.92S                  
APALACHICOLA   FAIR      83  60  45 SW6       29.92F                  

STATION/POSITION SKY/WX   TEMP    WIND        PRES    WAVE   SWELL
                          AIR SEA DIR/SP/G            HT/PER HT/PER
                          (F)     (DEG/KT/KT) (MB)    (FT/S) (FT/S)
30.1N   87.6W                                   N/A     3/ 5
29.2N   88.2W                     140/ 10/ 12 1012.9R   3/ 5   2/ 5
PANAMA CITY BEAC           81 83  210/  5/  7 1013.9F
TOWER C          NOT AVBL

$$
FLZ011-016>038-118-127-128-134-139-239-220100-
NORTH FLORIDA
  
CITY           SKY/WX    TMP DP  RH WIND       PRES   REMARKS
MARIANNA       FAIR      87  55  33 SW12      29.90R                  
TALLAHASSEE    FAIR      87  65  47 S7        29.91S                  
PERRY          FAIR      85  69  58 SW7       29.93S                  
LIVE OAK       CLEAR     86  63  45 VRB3      29.91R                  
CROSS CITY     FAIR      82  71  70 SW7       29.92S                  
LAKE CITY      FAIR      86  64  48 W7        29.92R                  
GAINESVILLE    MOCLDY    90  69  50 W12       29.93R                  
WILLISTON      MOCLDY    87  68  53 W7        29.92R                  
PALATKA        FAIR      84  66  54 SE12      29.94R                  
MAYPORT NAS    FAIR      81  73  76 SE13      29.94R                  
JACKSONVILLE   FAIR      84  66  54 SE9       29.92R                  
JAX NAS        FAIR      86  65  49 SE13      29.94R                  
JAX CECIL      CLEAR     86  64  48 SE14      29.93R                  
FERNANDINA BEA FAIR      80  74  81 SE12      29.94R                  
ST AUGUSTINE   FAIR      79  71  76 SE12      29.96R                  
PALM COAST     FAIR      78  70  74 SE6       29.95R                  

STATION/POSITION SKY/WX   TEMP    WIND        PRES    WAVE   SWELL
                          AIR SEA DIR/SP/G            HT/PER HT/PER
                          (F)     (DEG/KT/KT) (MB)    (FT/S) (FT/S)
SHELL POINT      NOT AVBL
KEATON BEACH               82     240/  9/  9 1013.5F
CEDAR KEY                  82     300/  6/  8 1013.4S
FERNANDINA                        140/  6/ 12   N/A
30.7N   81.3W                 80                N/A     2/ 3
MAYPORT                    80 83  140/  8/ 11 1014.1R
31.4N   80.9W              78 78  170/ 12/ 16 1013.4F   2/ 6   2/ 6
ST AUGUSTINE               79 83  140/ 14/ 15 1014.3R

$$
FLZ040-043>046-052-053-057-058-063-144-220100-
INTERIOR CENTRAL FLORIDA
  
CITY           SKY/WX    TMP DP  RH WIND       PRES   REMARKS
OCALA          MOCLDY    87  69  54 W6        29.92R                  
LEESBURG       FAIR      87  64  46 SE5       29.92R                  
SANFORD        FAIR      84  66  54 E9        29.93R                  
ORLANDO EXEC   FAIR      84  65  52 E14       29.93R                  
ORLANDO INTL   FAIR      83  66  56 SE12      29.93R                  
KISSIMMEE      FAIR      85  70  60 SE12      29.94R                  
WINTER HAVEN   FAIR      89  63  41 E7        29.93R                  
LAKELAND       PTCLDY    90  63  40 E3        29.92S                  
BARTOW         FAIR      88  64  45 E8        29.91S                  
SEBRING        FAIR      85  69  59 E16       29.94R                  
OKEECHOBEE     FAIR      81  68  65 E5        29.94R                  

$$
FLZ041-047-054-059-064-141-147-220100-
EAST CENTRAL FLORIDA
  
CITY           SKY/WX    TMP DP  RH WIND       PRES   REMARKS
DAYTONA BEACH  FAIR      79  71  76 E5        29.95R                  
DELAND         FAIR      81  66  61 E12       29.94R                  
NEW SMYRNA BEA PTCLDY    79  68  69 SE12      29.96R                  
TITUSVILLE     CLEAR     82  68  61 SE10      29.96R                  
MELBOURNE      FAIR      81  68  64 SE10      29.95R                  
VERO BEACH     FAIR      79  68  69 SE12      29.96R                  
FT PIERCE      FAIR      79  67  66 SE10      29.96R                  
STUART         CLEAR     81  66  61 SE12      29.97R                  

STATION/POSITION SKY/WX   TEMP    WIND        PRES    WAVE   SWELL
                          AIR SEA DIR/SP/G            HT/PER HT/PER
                          (F)     (DEG/KT/KT) (MB)    (FT/S) (FT/S)
28.5N   80.2W              80     110/ 12/ 14 1014.6R   2/ 6   2/ 6
28.9N   78.5W              79 81   70/  4/  6 1015.6R
TRIDENT PIER               79 83  110/  7/ 11 1015.7R
28.4N   80.5W                 81                N/A     2/ 7
27.5N   80.2W                 80                N/A     2/ 3

$$
FLZ050-056-061-142-242-148-248-149-249-151-251-155-255-
160-260-220100-
WEST CENTRAL FLORIDA
  
CITY           SKY/WX    TMP DP  RH WIND       PRES   REMARKS
CRYSTAL RIVER  FAIR      82  73  74 W6        29.93R                  
INVERNESS      FAIR      84  73  70 CALM      29.93R                  
BROOKSVILLE    FAIR      85  67  54 NW6       29.93R                  
CLEARWATER AIR FAIR      81  70  69 W3        29.92S                  
ST PETE CLEARW FAIR      82  71  69 W7        29.92R                  
TAMPA INTL     FAIR      86  70  58 W10       29.92R                  
TAMPA EXEC     FAIR      84  72  65 CALM      29.92R                  
PLANT CITY     FAIR      86  68  54 W7        29.94R                  
PETER O KNIGHT CLOUDY    86  72  62 W5        29.92S                  
ST PETERSBURG  FAIR      84  73  69 SW12      29.90R                  
SARASOTA       FAIR      83  72  69 W8        29.90S                  
VENICE         FAIR      84  73  70 W6        29.92S                  

STATION/POSITION SKY/WX   TEMP    WIND        PRES    WAVE   SWELL
                          AIR SEA DIR/SP/G            HT/PER HT/PER
                          (F)     (DEG/KT/KT) (MB)    (FT/S) (FT/S)
27.3N   84.2W                 82                N/A     1/ 7
CLEARWATER BEACH           82 85  230/  6/  7 1013.3S
MIDDLE TAMPA BAY                  260/  8/ 10   N/A
VENICE                     82 82  260/  7/  8 1013.1R

$$
FLZ066-069-070-075>078-162-262-165-265-220100-
SOUTHWEST FLORIDA AND KEYS
  
CITY           SKY/WX    TMP DP  RH WIND       PRES   REMARKS
PUNTA GORDA    FAIR      83  70  64 CALM      29.93R                  
FT MYERS       MOCLDY    83  70  64 NW7       29.90S                  
SOUTHWEST INTL FAIR      86  69  56 W5        29.91S                  
NAPLES         MOCLDY    83  72  69 CALM      29.92R                  
MARCO ISLAND   CLOUDY    83  74  74 SE6       29.94R                  
IMMOKALEE      MOCLDY    82  70  65 S14       29.91R                  
MARATHON       FAIR      85  72  65 E8        29.93R                  
KEY WEST NAS   FAIR      84  71  65 E9        29.92S                  
KEY WEST INTL  FAIR      82  72  71 E10       29.93R                  

STATION/POSITION SKY/WX   TEMP    WIND        PRES    WAVE   SWELL
                          AIR SEA DIR/SP/G            HT/PER HT/PER
                          (F)     (DEG/KT/KT) (MB)    (FT/S) (FT/S)
NAPLES                     89 87              1013.3R
DRY TORTUGAS               82     110/  7/  8 1013.1F
SAND KEY                   81                 1013.2R
SOMBRERO KEY               81                 1012.9R

$$
FLZ067-068-071>074-168-172>174-220100-
SOUTHEAST FLORIDA 
  
CITY           SKY/WX    TMP DP  RH WIND       PRES   REMARKS
W PALM BEACH   FAIR      81  66  60 E14       29.96S                  
FT LAUDER-EXEC FAIR      81  68  64 E10       29.95R                  
FT LAUDERDALE  FAIR      81  68  64 E12       29.94R                  
POMPANO BEACH  FAIR      82  69  64 E10       29.95R                  
PEMBROKE PINES FAIR      81  68  64 E10       29.96R                  
OPA LOCKA      FAIR      81  69  67 E12       29.95R                  
MIAMI          FAIR      82  67  60 E13       29.95R                  
WEST KENDALL   FAIR      81  69  67 E13       29.94R                  
HOMESTEAD      NOT AVBL                                               

STATION/POSITION SKY/WX   TEMP    WIND        PRES    WAVE   SWELL
                          AIR SEA DIR/SP/G            HT/PER HT/PER
                          (F)     (DEG/KT/KT) (MB)    (FT/S) (FT/S)
PORT EVERGLADES            81      80/  7/  9 1014.3
VIRGINIA KEY               81 86   70/ 11/ 13 1013.5R
LAKE WORTH                 79 83              1015.4S
SETTLEMENT POINT           79      80/ 12/ 13 1014.9R

$$